User: anonymous   Login
Location: Unspecified
(0.0000°N, 0.0000°E)
Time: 16:05:35
(UTC+01:00)
Language:

Cosmos 2251 - Orbit

View from above orbital plane
View from above orbital plane
View from above satellite
View from above satellite

Ground track
Ground track

The orbit data is extracted from the following two-line orbital elements,

1 22675U 93036A   17326.39532814  .00000010  00000-0  13200-4 0  9998
2 22675  74.0388 287.3648 0024913   5.0097 355.1298 14.32510215276688
Epoch (UTC): 22 November 2017 09:29:16
Eccentricity: 0.0024913
inclination: 74.0388°
perigee height: 765 km
apogee height: 801 km
right ascension of ascending node: 287.3648°
argument of perigee: 5.0097°
revolutions per day: 14.32510215
mean anomaly at epoch: 355.1298°
orbit number at epoch: 27668

The dashed part of the orbit path shows where the satellite is in the earth's shadow,  

DLR